Date String (YYYY-MM-DD hh:mm:ss) UTC,Instrument flags,absolute air pressure of the measurement (hPa),sample flow rate (lpm),inlet stack bypass flow (lpm),air temperature of the measurement (°C),ambient temperature measured by the external sensor (°C),aerosol sample conditioner tube jacket temperature (°C),OPC LED temperature (°C),internal box temperature (°C),relative humidity of the measurement (%),span deviation,mass concentration of particles derived from Lorenz-Mie calculation of OPC scattering (μg/m³),mass concentration of particles derived from Lorenz-Mie calculation of OPC scattering (μg/m³),mass concentration of particles derived from Lorenz-Mie calculation of OPC scattering (μg/m³)
DateTimeUTC,F1_M11,P_M11,Q1_M11,Q2_M11,T1_M11,T2_M11,T3_M11,T4_M11,T5_M11,U1_M11,ZSPAN_M11,X0_M11,X2_M11,X1_M11
2024-04-16 11:00:00,SystemResetWarning,0818.0,5.00,000.00,023.5,022.8,000.0,031.8,025.3,022.9,0000.0,0003.05,0000.35,0000.11
2024-04-16 11:01:00,SystemResetWarning,0818.1,5.01,000.00,023.5,022.8,000.0,031.8,025.3,022.8,0000.0,0003.25,0000.36,0000.11
2024-04-16 11:02:00,SystemResetWarning,0818.0,5.00,000.00,023.5,022.8,000.0,031.8,025.3,022.7,0000.0,0003.34,0000.37,0000.11
2024-04-16 11:03:00,SystemResetWarning,0818.1,4.99,000.00,023.5,022.8,000.0,031.9,025.3,022.4,0000.0,0003.40,0000.41,0000.11
2024-04-16 11:04:00,SystemResetWarning,0818.1,4.99,000.00,023.5,022.8,000.0,031.9,025.3,022.5,0000.0,0003.98,0000.43,0000.11
2024-04-16 11:05:00,SystemResetWarning,0818.1,5.00,000.00,023.5,022.8,000.0,031.9,025.3,022.6,0000.0,0004.39,0000.44,0000.11
2024-04-16 11:06:00,SystemResetWarning,0818.1,5.01,000.00,023.5,022.8,000.0,031.9,025.3,022.6,0000.0,0003.86,0000.43,0000.11
2024-04-16 11:07:00,SystemResetWarning,0818.2,5.01,000.00,023.5,022.8,000.0,031.9,025.3,022.7,0000.0,0003.64,0000.42,0000.11
2024-04-16 11:08:00,SystemResetWarning,0818.2,4.99,000.00,023.5,022.8,000.0,031.9,025.3,022.4,0000.0,0003.58,0000.40,0000.11
2024-04-16 11:09:00,SystemResetWarning,0818.2,4.99,000.00,023.5,022.8,000.0,031.9,025.4,022.2,0000.0,0003.53,0000.38,0000.10
2024-04-16 11:10:00,SystemResetWarning,0818.2,4.99,000.00,023.5,022.8,000.0,031.9,025.4,022.0,0000.0,0003.47,0000.36,0000.11
2024-04-16 11:11:00,SystemResetWarning,0818.1,5.01,000.00,023.5,022.8,000.0,031.9,025.4,021.9,0000.0,0002.37,0000.33,0000.11
2024-04-16 11:12:00,SystemResetWarning,0818.2,5.01,000.00,023.5,022.8,000.0,031.9,025.4,021.9,0000.0,0001.94,0000.31,0000.12
2024-04-16 11:13:00,SystemResetWarning,0818.3,4.99,000.00,023.5,022.8,000.0,032.0,025.4,022.0,0000.0,0001.86,0000.30,0000.12
2024-04-16 11:14:00,SystemResetWarning,0818.3,4.99,000.00,023.5,022.8,000.0,032.0,025.4,021.9,0000.0,0001.83,0000.28,0000.12
2024-04-16 11:15:00,SystemResetWarning,0818.2,4.99,000.00,023.5,022.9,000.0,032.0,025.4,022.0,0000.0,0001.30,0000.30,0000.13
2024-04-16 11:16:00,SystemResetWarning,0818.2,5.00,000.00,023.6,022.9,000.0,032.0,025.4,021.9,0000.0,0000.85,0000.29,0000.13
2024-04-16 11:17:00,SystemResetWarning,0818.3,5.01,000.00,023.6,022.9,000.0,032.0,025.4,021.8,0000.0,0000.57,0000.28,0000.13
2024-04-16 11:18:00,SystemResetWarning,0818.3,5.01,000.00,023.6,022.9,000.0,032.0,025.4,021.7,0000.0,0001.33,0000.30,0000.14
2024-04-16 11:19:00,SystemResetWarning,0818.3,5.00,000.00,023.6,022.9,000.0,032.0,025.4,021.7,0000.0,0001.40,0000.33,0000.14
2024-04-16 11:20:00,SystemResetWarning,0818.3,4.99,000.00,023.6,022.9,000.0,032.0,025.5,021.6,0000.0,0001.42,0000.34,0000.14
2024-04-16 11:21:00,SystemResetWarning,0818.3,4.99,000.00,023.6,022.9,000.0,032.0,025.4,021.6,0000.0,0001.37,0000.33,0000.15
2024-04-16 11:22:00,SystemResetWarning,0818.3,5.00,000.00,023.6,022.9,000.0,032.0,025.4,021.6,0000.0,0001.33,0000.32,0000.15
2024-04-16 11:23:00,SystemResetWarning,0818.3,5.00,000.00,023.6,022.9,000.0,032.0,025.4,021.5,0000.0,0001.37,0000.34,0000.15
2024-04-16 11:24:00,SystemResetWarning,0818.3,5.01,000.00,023.6,022.9,000.0,032.0,025.4,021.5,0000.0,0001.37,0000.33,0000.14
2024-04-16 11:25:00,SystemResetWarning,0818.3,5.01,000.00,023.6,022.9,000.0,032.0,025.5,021.4,0000.0,0001.35,0000.33,0000.15
2024-04-16 11:26:00,SystemResetWarning,0818.3,4.99,000.00,023.6,022.9,000.0,032.0,025.5,021.4,0000.0,0001.24,0000.29,0000.14
2024-04-16 11:27:00,SystemResetWarning,0818.3,4.99,000.00,023.6,022.9,000.0,032.0,025.5,021.4,0000.0,0001.33,0000.32,0000.15
2024-04-16 11:28:00,SystemResetWarning,0818.3,4.99,000.00,023.6,022.9,000.0,032.0,025.5,021.2,0000.0,0001.62,0000.34,0000.15
2024-04-16 11:29:00,SystemResetWarning,0818.3,5.00,000.00,023.6,022.9,000.0,032.1,025.5,021.3,0000.0,0000.85,0000.32,0000.16
2024-04-16 11:30:00,SystemResetWarning,0818.2,5.02,000.00,023.6,022.9,000.0,032.1,025.5,021.4,0000.0,0000.85,0000.32,0000.16
2024-04-16 11:31:00,SystemResetWarning,0818.2,5.00,000.00,023.6,022.9,000.0,032.1,025.5,021.4,0000.0,0000.87,0000.32,0000.17
2024-04-16 11:32:00,SystemResetWarning,0818.1,4.99,000.00,023.6,022.9,000.0,032.1,025.5,021.9,0000.0,0000.90,0000.33,0000.17
2024-04-16 11:33:00,SystemResetWarning,0818.1,4.99,000.00,023.6,022.9,000.0,032.1,025.5,022.4,0000.0,0000.94,0000.35,0000.17
2024-04-16 11:34:00,SystemResetWarning,0818.1,5.00,000.00,023.6,022.9,000.0,032.1,025.5,022.8,0000.0,0000.90,0000.33,0000.17
2024-04-16 11:35:00,SystemResetWarning,0818.1,5.00,000.00,023.6,022.9,000.0,032.1,025.5,023.1,0000.0,0000.99,0000.34,0000.17
2024-04-16 11:36:00,SystemResetWarning,0818.1,5.01,000.00,023.6,022.9,000.0,032.1,025.5,023.3,0000.0,0001.34,0000.36,0000.17
2024-04-16 11:37:00,SystemResetWarning,0818.1,5.00,000.00,023.6,022.9,000.0,032.1,025.5,023.3,0000.0,0001.39,0000.38,0000.17
2024-04-16 11:38:00,SystemResetWarning,0818.0,5.01,000.00,023.6,022.9,000.0,032.1,025.5,023.4,0000.0,0001.39,0000.37,0000.18
2024-04-16 11:39:00,SystemResetWarning,0818.0,5.00,000.00,023.6,022.9,000.0,032.1,025.5,023.5,0000.0,0001.11,0000.37,0000.18
2024-04-16 11:40:00,SystemResetWarning,0818.0,4.99,000.00,023.6,022.9,000.0,032.1,025.5,023.6,0000.0,0001.12,0000.37,0000.18
2024-04-16 11:41:00,SystemResetWarning,0818.0,4.99,000.00,023.6,022.9,000.0,032.1,025.5,023.6,0000.0,0001.23,0000.38,0000.18
2024-04-16 11:42:00,SystemResetWarning,0818.0,5.00,000.00,023.6,022.9,000.0,032.1,025.5,023.6,0000.0,0001.38,0000.39,0000.17
2024-04-16 11:43:00,SystemResetWarning,0818.1,5.00,000.00,023.6,022.9,000.0,032.1,025.5,023.6,0000.0,0001.36,0000.39,0000.18
2024-04-16 11:44:00,SystemResetWarning,0818.2,5.00,000.00,023.6,022.9,000.0,032.1,025.5,023.5,0000.0,0001.37,0000.40,0000.18
2024-04-16 11:45:00,SystemResetWarning,0818.2,5.01,000.00,023.7,022.9,000.0,032.1,025.5,023.5,0000.0,0001.45,0000.44,0000.19
2024-04-16 11:46:00,SystemResetWarning,0818.3,5.00,000.00,023.7,022.9,000.0,032.1,025.5,023.5,0000.0,0001.54,0000.48,0000.19
2024-04-16 11:47:00,SystemResetWarning,0818.3,5.00,000.00,023.7,022.9,000.0,032.1,025.5,023.6,0000.0,0001.33,0000.48,0000.19
2024-04-16 11:48:00,SystemResetWarning,0818.3,4.98,000.00,023.7,022.9,000.0,032.1,025.5,023.1,0000.0,0001.33,0000.47,0000.20
2024-04-16 11:49:00,SystemResetWarning,0818.3,4.99,000.00,023.6,022.9,000.0,032.1,025.5,022.4,0000.0,0001.46,0000.48,0000.19
2024-04-16 11:50:00,SystemResetWarning,0818.3,5.01,000.00,023.6,022.9,000.0,032.1,025.4,022.1,0000.0,0001.45,0000.47,0000.19
2024-04-16 11:51:00,SystemResetWarning,0818.3,5.01,000.00,023.6,022.8,000.0,032.1,025.4,022.3,0000.0,0001.43,0000.46,0000.19
2024-04-16 11:52:00,SystemResetWarning,0818.3,5.01,000.00,023.6,022.8,000.0,032.1,025.4,022.2,0000.0,0001.47,0000.45,0000.18
2024-04-16 11:53:00,SystemResetWarning,0818.3,5.00,000.00,023.6,022.8,000.0,032.1,025.4,022.2,0000.0,0003.67,0000.47,0000.19
2024-04-16 11:54:00,SystemResetWarning,0818.3,5.00,000.00,023.6,022.8,000.0,032.1,025.4,022.1,0000.0,0003.82,0000.50,0000.19
2024-04-16 11:55:00,SystemResetWarning,0818.3,5.00,000.00,023.6,022.8,000.0,032.1,025.4,022.3,0000.0,0003.80,0000.49,0000.19
2024-04-16 11:56:00,SystemResetWarning,0818.3,5.00,000.00,023.6,022.8,000.0,032.1,025.4,022.6,0000.0,0003.77,0000.49,0000.19
2024-04-16 11:57:00,SystemResetWarning,0818.3,5.00,000.00,023.6,022.8,000.0,032.1,025.4,022.7,0000.0,0003.70,0000.49,0000.18
2024-04-16 11:58:00,SystemResetWarning,0818.3,4.99,000.00,023.5,022.8,000.0,032.1,025.4,022.8,0000.0,0003.63,0000.49,0000.18
2024-04-16 11:59:00,SystemResetWarning,0818.4,5.00,000.00,023.5,022.7,000.0,032.1,025.4,022.9,0000.0,0003.76,0000.51,0000.18
